Total_Precipitation_Accumulation
1.54 1.52 1.55 1.74 1.75 1.81 1.80 1.54 1.31 1.37 1.45 1.39 1.21 1.19 1.27 1.29 1.30 1.45 1.59 1.51 1.47 1.61 1.83 1.95 1.99 1.95 1.90 1.93 1.93 1.94 1.90 1.82 1.76 1.66 1.47 1.33 1.25 1.23 1.24 1.24 1.23 1.15 1.12
1.78 1.82 1.82 1.87 1.88 2.03 2.06 1.82 1.65 1.74 1.70 1.64 1.44 1.34 1.33 1.42 1.42 1.52 1.59 1.55 1.41 1.37 1.55 1.85 2.04 2.12 2.14 2.17 2.10 1.99 1.96 1.89 1.86 1.75 1.61 1.46 1.38 1.31 1.26 1.27 1.29 1.25 1.16
2.11 2.21 2.25 2.16 2.09 2.05 2.10 2.03 1.93 1.91 1.86 1.67 1.56 1.55 1.56 1.44 1.39 1.55 1.67 1.69 1.60 1.51 1.59 1.67 1.80 2.00 2.29 2.42 2.34 2.22 2.14 2.08 1.97 1.87 1.78 1.65 1.52 1.44 1.37 1.32 1.32 1.29 1.23
2.26 2.49 2.54 2.33 2.19 2.12 2.22 2.31 2.21 2.18 2.14 2.04 1.79 1.60 1.62 1.60 1.51 1.55 1.58 1.66 1.79 1.72 1.73 1.67 1.69 1.82 2.02 2.20 2.33 2.38 2.35 2.27 2.17 2.07 1.97 1.85 1.76 1.60 1.46 1.42 1.37 1.32 1.30
2.33 2.51 2.62 2.60 2.35 2.32 2.42 2.35 2.53 2.44 2.41 2.23 1.90 1.70 1.54 1.45 1.49 1.50 1.51 1.57 1.62 1.65 1.72 1.75 1.76 1.79 1.94 2.05 2.14 2.26 2.29 2.29 2.20 2.06 2.02 2.00 1.88 1.71 1.59 1.56 1.48 1.41 1.37
2.43 2.63 2.70 2.75 2.62 2.65 2.75 2.73 2.75 2.58 2.37 2.22 1.95 1.77 1.53 1.31 1.30 1.37 1.37 1.38 1.35 1.37 1.46 1.54 1.67 1.65 1.74 1.83 1.96 2.19 2.46 2.51 2.37 2.20 2.12 2.05 1.92 1.73 1.61 1.62 1.60 1.54 1.49
3.08 3.22 3.17 3.08 2.90 2.85 2.88 2.81 2.70 2.60 2.46 2.41 2.29 1.99 1.61 1.30 1.17 1.14 1.21 1.24 1.20 1.22 1.28 1.39 1.46 1.50 1.54 1.58 1.66 1.88 2.26 2.51 2.47 2.34 2.25 2.14 2.03 1.91 1.81 1.74 1.70 1.66 1.60
3.70 3.65 3.59 3.34 3.10 2.93 2.80 2.68 2.56 2.47 2.33 2.30 2.30 2.22 1.89 1.57 1.25 1.04 1.14 1.19 1.18 1.24 1.24 1.20 1.23 1.26 1.24 1.35 1.49 1.65 1.88 2.02 2.17 2.32 2.30 2.18 2.07 2.00 1.96 1.94 1.91 1.83 1.75
3.54 3.44 3.37 3.24 3.02 2.85 2.72 2.71 2.65 2.56 2.42 2.38 2.38 2.42 2.23 1.82 1.41 1.16 1.07 1.11 1.18 1.24 1.26 1.24 1.18 1.20 1.24 1.28 1.34 1.55 1.72 1.74 1.84 2.00 2.16 2.15 2.07 2.06 2.03 2.04 2.05 2.03 1.98
3.30 3.15 3.15 3.08 2.94 2.75 2.58 2.46 2.44 2.45 2.50 2.40 2.27 2.10 1.97 1.76 1.64 1.43 1.24 1.16 1.13 1.16 1.18 1.18 1.16 1.18 1.26 1.38 1.51 1.59 1.63 1.60 1.62 1.68 1.73 1.83 1.90 1.97 2.01 1.96 2.00 2.09 2.16
3.08 2.91 2.86 2.74 2.57 2.41 2.26 2.14 2.07 2.10 2.15 2.17 2.14 2.04 1.96 1.83 1.69 1.56 1.43 1.31 1.25 1.17 1.13 1.14 1.15 1.21 1.26 1.32 1.44 1.49 1.53 1.48 1.50 1.51 1.54 1.60 1.68 1.77 1.91 2.02 2.11 2.22 2.33
2.90 2.65 2.40 2.30 2.25 2.07 1.84 1.73 1.68 1.66 1.71 1.78 1.87 1.87 1.80 1.76 1.72 1.70 1.59 1.45 1.39 1.34 1.26 1.25 1.20 1.20 1.26 1.25 1.25 1.41 1.37 1.36 1.36 1.38 1.43 1.47 1.45 1.50 1.62 1.78 2.00 2.19 2.34
2.46 2.22 2.03 1.89 1.81 1.76 1.65 1.53 1.46 1.37 1.35 1.42 1.47 1.58 1.62 1.58 1.55 1.62 1.70 1.64 1.50 1.37 1.25 1.21 1.11 1.05 1.07 1.18 1.27 1.28 1.18 1.18 1.15 1.14 1.20 1.32 1.39 1.39 1.35 1.44 1.57 1.77 1.94
1.97 1.77 1.64 1.49 1.34 1.23 1.19 1.20 1.24 1.23 1.21 1.25 1.26 1.37 1.45 1.45 1.47 1.50 1.55 1.68 1.68 1.50 1.33 1.19 1.08 1.02 1.03 1.07 1.15 1.04 1.01 1.01 0.98 1.03 1.06 1.14 1.23 1.36 1.35 1.26 1.23 1.28 1.40
1.47 1.36 1.26 1.20 1.11 1.05 1.01 1.01 1.04 1.09 1.09 1.11 1.14 1.21 1.28 1.26 1.28 1.34 1.41 1.51 1.63 1.59 1.45 1.26 1.22 1.17 1.14 1.12 1.18 1.02 1.03 0.99 0.96 1.04 1.07 1.14 1.22 1.36 1.41 1.31 1.19 1.10 1.07
1.16 1.07 1.02 1.00 0.96 0.94 0.96 1.02 1.04 1.05 1.06 1.03 1.00 0.98 0.99 0.98 1.01 1.05 1.14 1.24 1.35 1.46 1.43 1.21 1.15 1.23 1.21 1.12 1.26 1.13 1.07 1.03 1.01 1.24 1.38 1.32 1.30 1.47 1.62 1.58 1.40 1.26 1.18
0.90 0.89 0.84 0.81 0.83 0.87 0.89 0.92 0.91 0.90 0.85 0.81 0.78 0.79 0.82 0.82 0.87 0.89 0.94 1.07 1.25 1.38 1.44 1.22 1.09 1.17 1.29 1.25 1.28 1.22 1.11 1.04 1.12 1.53 1.77 1.97 1.72 1.61 1.70 1.67 1.56 1.37 1.24
0.81 0.81 0.75 0.69 0.64 0.63 0.65 0.67 0.68 0.72 0.74 0.71 0.73 0.76 0.77 0.77 0.78 0.84 0.90 0.97 1.12 1.29 1.45 1.42 1.22 1.22 1.28 1.29 1.35 1.35 1.17 1.00 1.03 1.49 1.82 2.15 2.13 1.91 1.92 1.75 1.57 1.38 1.25
0.73 0.68 0.64 0.61 0.54 0.52 0.50 0.49 0.52 0.58 0.61 0.61 0.65 0.70 0.74 0.85 0.85 0.85 0.91 0.93 1.02 1.14 1.37 1.47 1.36 1.33 1.40 1.44 1.55 1.46 1.27 1.21 1.00 1.25 1.68 2.02 2.21 2.26 2.35 2.21 1.90 1.54 1.31
0.70 0.68 0.66 0.54 0.45 0.40 0.39 0.39 0.40 0.44 0.46 0.50 0.57 0.63 0.69 0.81 0.87 0.91 0.92 0.93 0.98 1.10 1.27 1.44 1.44 1.43 1.49 1.57 1.60 1.58 1.42 1.25 1.09 1.05 1.51 2.00 2.35 2.39 2.57 2.68 2.39 1.91 1.50
0.64 0.63 0.63 0.59 0.50 0.41 0.36 0.35 0.36 0.40 0.47 0.53 0.56 0.58 0.62 0.72 0.81 0.80 0.75 0.79 0.92 1.13 1.22 1.39 1.46 1.44 1.44 1.54 1.54 1.37 1.30 1.20 1.06 1.01 1.21 1.62 2.30 2.65 2.72 2.78 2.68 2.18 1.71
0.64 0.60 0.59 0.57 0.53 0.40 0.39 0.39 0.36 0.42 0.50 0.56 0.59 0.59 0.57 0.58 0.58 0.60 0.66 0.72 0.82 1.07 1.38 1.57 1.53 1.46 1.34 1.31 1.33 1.29 1.29 1.28 1.23 0.98 0.96 1.27 1.83 2.57 2.82 2.80 2.72 2.15 1.61
0.61 0.56 0.53 0.55 0.53 0.45 0.41 0.38 0.38 0.44 0.54 0.60 0.63 0.63 0.52 0.45 0.54 0.60 0.64 0.69 0.82 0.98 1.26 1.58 1.66 1.45 1.36 1.31 1.34 1.34 1.38 1.43 1.33 0.99 0.98 1.27 1.63 2.28 2.48 2.50 2.40 1.84 1.41
0.59 0.59 0.58 0.58 0.55 0.45 0.41 0.40 0.40 0.46 0.56 0.58 0.59 0.61 0.62 0.60 0.56 0.59 0.66 0.76 0.91 1.03 1.13 1.23 1.52 1.36 1.14 1.13 1.20 1.24 1.32 1.36 1.28 1.08 1.05 1.33 1.63 2.06 2.06 2.12 2.05 1.63 1.29
0.58 0.54 0.51 0.53 0.56 0.53 0.47 0.41 0.38 0.46 0.53 0.54 0.52 0.50 0.50 0.52 0.56 0.66 0.81 1.04 1.18 1.30 1.24 1.37 1.53 1.48 1.31 1.21 1.10 1.14 1.34 1.39 1.35 1.20 1.10 1.31 1.54 1.68 1.77 1.83 1.67 1.50 1.25
0.53 0.48 0.45 0.48 0.52 0.50 0.39 0.34 0.34 0.41 0.48 0.53 0.56 0.56 0.49 0.46 0.57 0.73 0.97 1.26 1.39 1.47 1.33 1.43 1.67 1.71 1.54 1.49 1.44 1.31 1.40 1.42 1.38 1.34 1.09 1.13 1.33 1.36 1.59 1.60 1.45 1.32 1.24